sat.trackr.live / text

‹ back to catalog

STARLINK-5137

NORAD 53975 · 2022-125M

PAYLOAD ACTIVE UNKNOWN

§ Identity

Operator
Country
US
Launch date
2022-10-05
Launch site
AFWTR
Launch vehicle
Mass (kg)
RCS (m²)

Purposes: comms

External: N2YO · Heavens-Above · Gunter

§ Orbital elements

Epoch: 2026-05-24T23:11:16.098720Z

Period
95.44 min
Inclination
53.2120°
Eccentricity
0.0000794
Mean motion
15.08839631 rev/d
Perigee alt
539.2 km
Apogee alt
540.3 km
Semi-major
6,917.9 km
B*
-4.6961e-5
RAAN
236.2778°
Arg perigee
80.4326°
Mean anomaly
279.6756°
Rev number
20,091

§ Raw data

STARLINK-51371 53975U 22125M   26144.96615855 -.00001035  00000+0 -46961-4 0  99932 53975  53.2120 236.2778 0000794  80.4326 279.6756 15.08839631200910

JSON: /api/v1/satellites/53975 · /tle

For live sub-satellite position, see the globe view (requires WebGL).

§ Visibility from observer

Set your observer location to see the next 7 days of passes ≥ 10°. The values pass through the URL so the page stays shareable.

No JS? Fill the form by hand. The geolocation button needs JavaScript.